DLH35X EDDM-EBBR

Flight info

Callsign DLH35X
Flight time N/A
Altitude 32000
Route GIVMI1N/26R GIVMI Y101 INBED DCT REKDI DCT OSBIT DCT TEKTU DCT TESGA DCT UMUPU T880 BATTY
Aircraft A321/M-SDE3FGHIRWY/LB1

Departure

Time 2026-05-07 17:21
Airport Munich Airport (EDDM)

Arrival

Time N/A
Airport Brussels Airport (EBBR)
Time Latitude Longitude Altitude Speed Heading
2026-05-07 16:25 48.35245 11.79770 1479 ft 0 kts 83°
2026-05-07 17:06 48.35245 11.79764 1485 ft 3 kts 83°
2026-05-07 17:06 48.35242 11.79725 1472 ft 4 kts 83°
2026-05-07 17:06 48.35239 11.79685 1477 ft 4 kts 81°
2026-05-07 17:06 48.35231 11.79648 1475 ft 4 kts 49°
2026-05-07 17:07 48.35213 11.79632 1478 ft 2 kts 354°
2026-05-07 17:07 48.35191 11.79635 1476 ft 2 kts 353°
2026-05-07 17:07 48.35189 11.79636 1476 ft 0 kts 353°
2026-05-07 17:08 48.35190 11.79636 1476 ft 1 kts 353°
2026-05-07 17:09 48.35207 11.79623 1474 ft 4 kts 320°
2026-05-07 17:09 48.35231 11.79572 1482 ft 8 kts 316°
2026-05-07 17:09 48.35303 11.79548 1481 ft 14 kts 354°
2026-05-07 17:09 48.35409 11.79530 1485 ft 15 kts 353°
2026-05-07 17:10 48.35477 11.79518 1473 ft 15 kts 353°
2026-05-07 17:10 48.35601 11.79500 1475 ft 0 kts 351°
2026-05-07 17:10 48.35605 11.79499 1476 ft 2 kts 352°
2026-05-07 17:10 48.35639 11.79501 1485 ft 8 kts
2026-05-07 17:11 48.35704 11.79488 1475 ft 11 kts 335°
2026-05-07 17:11 48.35779 11.79470 1485 ft 12 kts 358°
2026-05-07 17:11 48.35862 11.79452 1480 ft 11 kts 353°
2026-05-07 17:11 48.35923 11.79491 1477 ft 7 kts 38°
2026-05-07 17:12 48.35953 11.79505 1477 ft 7 kts 360°
2026-05-07 17:12 48.35967 11.79502 1477 ft 0 kts 352°
2026-05-07 17:14 48.35990 11.79497 1484 ft 9 kts 352°
2026-05-07 17:14 48.36082 11.79481 1481 ft 16 kts 354°
2026-05-07 17:14 48.36183 11.79466 1473 ft 11 kts
2026-05-07 17:15 48.36221 11.79567 1485 ft 14 kts 83°
2026-05-07 17:15 48.36235 11.79745 1475 ft 19 kts 83°
2026-05-07 17:15 48.36250 11.79948 1481 ft 20 kts 83°
2026-05-07 17:15 48.36266 11.80158 1481 ft 21 kts 83°
2026-05-07 17:16 48.36283 11.80376 1482 ft 21 kts 83°
2026-05-07 17:16 48.36300 11.80600 1485 ft 22 kts 83°
2026-05-07 17:16 48.36319 11.80829 1482 ft 22 kts 83°
2026-05-07 17:16 48.36336 11.81064 1485 ft 23 kts 83°
2026-05-07 17:17 48.36355 11.81305 1476 ft 23 kts 83°
2026-05-07 17:17 48.36373 11.81549 1483 ft 24 kts 83°
2026-05-07 17:17 48.36393 11.81798 1475 ft 24 kts 83°
2026-05-07 17:17 48.36410 11.81985 1475 ft 13 kts 50°
2026-05-07 17:18 48.36499 11.81995 1485 ft 16 kts 349°
2026-05-07 17:18 48.36628 11.81972 1476 ft 18 kts 352°
2026-05-07 17:18 48.36672 11.81886 1479 ft 8 kts 261°
2026-05-07 17:18 48.36670 11.81862 1478 ft 0 kts 262°
2026-05-07 17:20 48.36670 11.81861 1478 ft 1 kts 262°
2026-05-07 17:20 48.36658 11.81724 1484 ft 43 kts 263°
2026-05-07 17:20 48.36597 11.80918 1475 ft 112 kts 263°
2026-05-07 17:20 48.36482 11.79424 1488 ft 169 kts 263°
2026-05-07 17:21 48.36347 11.77618 2042 ft 176 kts 265°
2026-05-07 17:21 48.36216 11.75774 2713 ft 184 kts 267°
2026-05-07 17:21 48.36091 11.73773 3047 ft 200 kts 267°
2026-05-07 17:21 48.35942 11.71627 3440 ft 212 kts 266°
2026-05-07 17:22 48.35774 11.69443 4112 ft 208 kts 265°
2026-05-07 17:22 48.35956 11.67309 4601 ft 214 kts 293°
2026-05-07 17:22 48.36759 11.65315 4858 ft 234 kts 302°
2026-05-07 17:22 48.37671 11.63147 5215 ft 254 kts 301°
2026-05-07 17:23 48.38618 11.60852 5912 ft 261 kts 301°
2026-05-07 17:23 48.39574 11.58515 6685 ft 264 kts 300°
2026-05-07 17:23 48.40537 11.56155 6959 ft 265 kts 300°
2026-05-07 17:23 48.41496 11.53792 7037 ft 265 kts 300°
2026-05-07 17:24 48.42450 11.51433 7040 ft 264 kts 300°
2026-05-07 17:24 48.43391 11.49104 7042 ft 264 kts 300°
2026-05-07 17:24 48.44363 11.46716 7097 ft 266 kts 301°
2026-05-07 17:24 48.45563 11.44621 7781 ft 270 kts 316°
2026-05-07 17:25 48.47143 11.43072 8414 ft 275 kts 333°
2026-05-07 17:25 48.48993 11.42254 8948 ft 281 kts 346°
2026-05-07 17:25 48.50924 11.41734 9489 ft 283 kts 346°
2026-05-07 17:25 48.52878 11.41207 9952 ft 291 kts 346°
2026-05-07 17:26 48.54951 11.40639 10048 ft 315 kts 346°
2026-05-07 17:26 48.57170 11.40028 10250 ft 332 kts 346°
2026-05-07 17:26 48.59469 11.39400 10755 ft 338 kts 346°
2026-05-07 17:26 48.61798 11.38766 11348 ft 342 kts 346°
2026-05-07 17:27 48.64150 11.38125 11949 ft 345 kts 346°
2026-05-07 17:27 48.66521 11.37475 12554 ft 348 kts 346°
2026-05-07 17:27 48.68864 11.36729 13129 ft 349 kts 340°